Temperature
22 24 23 23 24 24 24 24 23 23 23 23 23 22 23 22 21 21 21 21 20 20 19 19 18 18 18 17 17 17 17 17 16 16 16 16 16 15 15 15 15 15 15 15
23 23 23 23 23 23 23 23 23 23 23 23 22 22 23 22 21 21 21 21 20 20 19 18 18 18 18 17 17 17 17 17 16 16 16 16 15 15 15 15 15 15 15 15
23 23 22 22 22 22 23 23 23 23 22 22 22 22 22 22 21 20 20 20 20 20 19 19 18 18 17 17 17 17 17 17 16 16 16 15 15 15 15 15 15 15 15 15
22 22 22 22 22 23 23 23 22 22 22 23 22 22 23 22 22 21 21 20 20 19 19 19 18 17 17 17 17 17 17 17 16 16 16 16 16 16 16 16 15 15 15 15
22 22 22 22 22 22 22 22 22 22 22 22 22 22 23 22 22 22 21 20 20 19 19 18 18 17 17 17 17 17 16 16 16 16 16 16 15 16 16 15 15 15 15 15
22 21 22 22 22 21 21 22 22 22 22 22 22 22 22 22 22 22 21 20 19 19 18 18 17 17 17 17 17 16 16 16 16 16 16 16 16 16 16 15 15 15 15 15
21 21 21 21 21 21 22 22 22 22 22 22 22 21 22 22 22 21 21 20 19 19 18 18 17 17 17 17 16 16 16 16 16 16 16 16 16 15 15 15 15 15 15 15
21 21 21 21 21 21 21 22 22 21 22 22 21 21 22 22 21 20 20 20 19 18 18 18 17 17 17 16 16 16 16 16 16 16 16 16 15 15 15 15 15 15 15 15
21 21 20 20 20 21 21 22 22 22 22 21 22 22 22 21 21 20 20 19 19 18 18 17 17 17 16 16 16 16 16 16 16 16 16 15 16 15 15 15 15 15 15 15
21 21 20 20 20 20 21 21 21 21 20 21 21 21 22 21 20 20 20 19 18 18 17 17 17 16 16 16 16 16 16 16 15 15 15 15 15 15 15 15 15 15 15 15
20 21 20 20 20 20 20 20 21 21 21 21 21 21 21 21 20 20 20 19 18 18 17 17 16 16 16 16 16 16 16 16 15 15 15 15 15 15 15 15 15 15 15 15
19 20 20 20 19 19 20 20 20 20 20 20 20 21 21 20 20 19 19 18 18 17 17 16 16 16 16 16 16 16 16 15 15 15 15 15 15 15 15 15 15 15 15 15
19 19 20 20 19 19 19 19 19 20 20 20 20 21 21 20 20 19 18 18 17 17 16 16 16 16 16 15 15 15 15 15 15 15 15 15 15 15 15 15 15 15 15 15
18 19 19 19 20 19 19 18 18 19 19 20 20 20 21 20 20 19 18 18 17 17 16 16 16 16 15 15 15 15 15 15 15 15 15 15 15 15 15 15 15 15 15 15
18 18 18 18 18 18 18 18 18 18 19 19 20 20 20 20 19 18 18 17 17 17 16 16 15 15 15 15 15 15 15 15 15 15 15 15 14 14 15 15 15 14 15 15
17 18 18 17 17 17 17 18 18 18 19 19 19 19 20 19 18 18 17 17 16 16 16 16 15 15 15 15 15 15 15 15 14 14 14 14 14 14 14 14 14 14 14 15
17 17 17 18 17 17 17 18 18 18 18 19 19 19 19 18 17 17 16 16 16 16 15 15 15 15 15 15 15 14 14 14 14 14 14 14 14 14 14 14 14 14 14 14
16 16 16 17 17 16 19 19 18 18 18 18 18 18 17 17 16 16 16 15 15 15 15 15 15 15 15 14 14 14 14 14 14 14 14 14 14 14 14 14 14 14 14 14
16 16 16 16 16 17 18 18 18 17 18 17 17 17 16 16 16 16 15 15 15 14 14 14 14 14 14 14 14 14 14 14 14 14 14 14 14 14 14 14 14 14 14 14
14 15 16 16 16 16 18 17 16 17 17 17 16 16 16 16 17 17 15 14 14 14 14 14 14 14 14 14 14 13 13 14 14 14 14 14 14 14 14 14 14 14 14 14
14 14 15 15 16 17 17 16 16 16 17 16 15 15 15 15 16 15 14 13 13 13 13 13 13 13 13 13 13 13 13 13 14 14 14 14 14 14 13 13 13 13 13 13
15 15 15 15 15 16 16 15 16 16 15 15 14 14 14 14 14 13 13 13 13 13 13 13 13 13 13 13 13 13 13 13 13 13 13 13 13 13 13 13 13 13 13 13
14 15 15 15 16 16 14 15 14 14 14 14 14 13 13 13 13 12 12 12 12 12 12 12 12 12 12 12 12 12 13 13 13 13 13 13 13 13 13 13 13 13 13 13
14 13 14 14 15 14 13 13 13 13 13 13 12 12 12 12 12 12 12 12 12 12 12 12 12 12 12 12 12 12 12 12 12 12 13 13 13 13 13 13 13 13 13 13
13 13 13 14 14 13 13 12 12 12 12 12 12 11 11 11 11 11 11 11 11 11 12 12 11 11 11 12 12 12 12 12 12 12 12 12 12 12 12 12 13 13 13 13
12 13 13 13 14 14 13 12 12 11 11 11 11 11 11 11 11 11 11 11 11 11 11 11 11 11 11 11 11 12 12 12 12 12 12 12 12 12 12 12 12 12 13 13
Wind_Speed
3 5 5 5 5 4 3 4 4 2 2 2 3 3 2 2 2 1 1 1 1 2 1 1 2 2 3 3 3 4 5 5 4 3 3 3 3 3 3 2 3 4 4 4
5 5 3 2 3 5 6 6 4 2 2 3 3 3 3 2 2 2 1 1 1 1 1 1 1 2 2 3 3 4 5 5 5 4 3 3 3 3 3 3 3 3 4 4
5 2 2 4 4 5 6 6 5 3 2 4 4 4 4 3 2 2 2 2 1 1 2 2 2 2 2 3 3 3 5 5 5 5 3 3 4 3 3 3 3 3 4 4
3 2 3 4 4 5 5 3 5 5 5 3 4 4 2 3 3 2 2 2 2 2 2 2 2 2 2 2 3 4 5 4 4 5 5 6 5 4 4 3 4 4 4 4
4 2 3 4 3 3 1 1 4 5 6 6 5 5 2 2 3 2 2 2 2 2 2 2 2 2 2 1 1 3 3 4 4 5 6 6 5 5 4 4 4 4 4 4
2 2 1 1 1 1 2 3 3 4 6 6 4 5 2 1 2 2 1 1 1 1 1 1 1 1 1 1 2 2 3 4 4 5 6 7 6 6 5 5 5 5 4 4
5 4 2 1 3 3 4 5 4 5 5 3 2 4 2 1 1 2 1 1 1 1 1 1 1 1 1 1 2 2 3 4 4 6 6 7 6 6 6 6 6 5 4 4
6 5 3 2 3 3 4 6 4 3 3 2 3 4 1 1 1 1 0 1 1 1 1 1 1 1 2 2 2 2 3 3 4 5 6 6 6 5 4 5 5 5 5 5
4 3 3 1 1 3 4 5 4 5 4 5 3 3 2 2 2 2 2 1 1 0 1 1 1 2 2 2 2 3 3 3 4 5 5 6 6 6 5 5 5 5 5 5
3 3 3 2 3 1 2 2 4 5 4 5 4 5 3 2 0 1 1 1 1 1 1 2 2 2 2 2 2 3 4 4 4 5 5 5 6 6 6 5 6 6 6 6
3 4 4 4 4 3 3 4 4 5 5 5 4 2 2 1 1 2 2 2 2 2 2 2 3 2 2 2 2 3 3 3 4 5 5 6 6 6 6 6 6 6 6 6
2 4 4 4 1 2 4 5 6 6 6 6 6 3 4 1 2 3 4 4 4 3 3 2 2 2 2 2 3 3 3 3 3 4 5 6 6 6 6 6 6 7 6 6
3 4 5 5 5 4 4 4 5 6 6 7 8 4 4 1 3 4 5 5 4 3 3 3 2 2 2 3 3 3 4 4 4 5 5 5 6 6 6 6 6 6 6 6
4 5 7 7 3 3 5 6 7 8 8 9 11 10 7 7 7 6 6 5 4 4 4 3 3 3 3 3 3 4 4 4 4 5 6 6 6 6 6 6 6 6 6 6
4 7 8 8 7 6 8 9 10 12 12 12 12 12 11 10 8 7 5 5 5 5 5 4 4 4 3 3 4 4 4 4 5 6 6 6 6 6 6 5 5 6 6 6
4 6 7 8 7 9 11 12 13 13 14 14 14 14 9 8 6 6 5 5 6 6 6 6 6 5 5 4 4 4 4 5 5 6 6 6 6 6 6 6 6 5 6 6
5 6 7 8 6 8 11 11 11 10 10 11 12 10 7 7 7 6 6 5 7 7 7 7 7 6 6 5 6 6 5 5 6 6 6 6 7 7 7 6 6 5 6 6
8 7 5 6 6 10 4 2 5 8 8 8 9 9 7 8 8 7 6 6 7 8 9 8 8 7 6 6 6 6 6 6 7 8 7 7 7 7 7 6 7 6 6 6
9 8 6 6 8 9 6 4 4 7 8 5 7 7 6 6 6 6 4 6 8 9 9 8 8 7 6 6 6 6 6 6 8 8 8 8 8 8 7 7 7 6 6 7
6 8 8 7 8 7 3 1 2 6 7 1 3 4 5 5 7 5 5 8 9 9 8 8 7 6 6 6 6 6 6 7 7 7 8 8 8 8 8 8 7 6 6 7
7 7 11 11 10 7 2 0 2 6 2 2 4 6 6 7 8 8 8 8 8 9 8 8 7 6 6 5 6 7 7 7 6 7 7 7 8 8 8 8 7 6 6 7
6 6 8 8 9 6 2 2 4 4 4 5 6 7 8 8 8 8 8 8 8 8 8 7 6 6 5 5 6 7 7 6 5 6 7 7 7 7 7 7 7 7 6 7
6 6 4 6 5 2 1 3 5 6 7 7 7 7 8 8 8 8 8 8 8 9 8 7 7 7 6 5 6 7 7 6 6 6 6 7 7 6 6 7 7 7 6 6
5 5 6 7 7 6 6 6 7 7 7 8 7 8 8 9 9 9 8 8 8 9 8 8 7 7 7 6 6 7 6 6 7 7 6 6 7 7 6 6 6 6 7 7
6 6 7 9 8 7 7 7 7 7 8 8 8 8 9 9 9 9 8 8 8 8 8 8 7 7 8 7 6 6 6 6 7 7 7 6 6 7 6 6 5 7 7 7
7 8 8 7 7 7 8 8 8 8 9 9 9 9 9 9 9 10 9 9 8 9 8 8 8 8 8 7 6 6 5 6 7 7 7 6 6 6 6 6 5 3 4 5
Wind_Direction
173 200 203 205 225 254 235 231 225 207 165 218 222 233 233 212 222 243 221 192 180 205 212 194 173 172 175 180 192 185 183 179 171 170 184 177 177 175 163 151 150 161 156 150
181 204 223 214 204 216 226 233 231 189 160 224 237 254 238 210 218 233 240 217 189 192 196 183 172 173 185 192 199 191 192 187 181 184 193 187 182 177 169 164 158 166 159 148
200 126 161 190 194 214 226 241 241 231 207 216 249 244 209 197 206 209 230 241 223 228 225 195 184 176 198 212 213 208 198 194 192 187 186 178 165 164 167 173 167 166 164 159
193 172 179 194 208 235 231 245 244 229 234 237 251 270 201 205 210 216 226 233 236 233 236 216 194 200 221 227 216 211 200 199 194 192 193 186 185 186 187 180 171 169 164 166
168 167 188 204 218 240 270 238 224 231 245 257 241 259 227 177 232 248 236 224 227 233 233 221 213 225 235 215 204 213 198 196 190 196 195 197 193 193 180 173 169 169 161 169
169 153 253 259 166 202 178 172 179 215 241 248 249 251 253 190 273 284 241 213 209 215 213 210 183 195 212 195 190 201 198 193 188 193 199 199 196 195 187 180 174 173 170 178
188 180 168 194 188 172 217 229 225 217 218 234 169 242 259 46 353 319 303 192 188 180 176 168 160 173 191 193 196 202 203 198 194 199 202 202 204 205 202 194 186 184 183 190
205 191 172 201 231 219 221 242 251 264 256 247 204 241 182 58 21 355 346 124 142 150 167 212 214 217 211 204 207 211 216 214 205 206 209 205 200 203 206 206 197 193 195 197
222 187 137 138 283 235 210 223 268 274 274 268 237 225 195 116 60 42 43 53 58 321 291 264 244 238 227 212 212 216 219 225 217 212 210 208 203 202 201 204 203 199 193 192
272 219 162 157 174 100 260 212 222 238 255 256 246 242 224 166 45 46 35 346 305 303 306 300 280 254 242 230 226 225 224 226 221 215 209 209 208 202 202 202 203 201 194 189
260 233 186 182 207 209 188 202 229 237 254 264 261 219 95 129 2 329 327 314 301 297 295 298 299 284 257 236 230 227 230 228 222 215 210 206 201 201 197 199 200 205 197 190
237 247 225 208 182 270 234 232 231 241 239 247 268 264 124 140 345 333 326 319 304 297 288 289 299 294 279 260 249 238 236 226 222 212 210 209 197 198 198 197 198 200 194 191
214 232 226 200 186 186 206 216 232 248 253 245 246 240 142 229 315 319 318 317 310 296 290 287 291 292 287 278 263 248 244 231 222 212 208 209 203 203 203 202 200 200 193 192
228 232 240 248 273 230 232 229 229 235 245 249 248 257 258 277 292 301 308 306 300 291 285 285 287 286 285 278 266 250 242 232 222 215 211 209 208 208 210 205 200 200 193 193
234 239 241 254 263 255 251 248 239 241 249 258 265 266 275 283 290 296 298 297 292 286 281 281 282 283 282 274 264 249 237 229 221 217 213 211 212 209 206 199 200 200 196 195
233 241 242 246 243 249 254 250 245 246 250 255 263 270 281 287 290 286 289 293 291 292 289 287 281 279 277 271 264 254 240 231 223 220 217 210 211 206 200 197 195 197 197 196
222 233 243 246 245 258 250 242 238 238 242 249 255 267 283 282 282 283 286 285 289 297 298 290 283 277 274 270 263 255 248 235 226 220 215 204 206 204 200 192 191 195 198 195
229 228 240 251 248 242 248 222 239 241 249 254 265 274 280 283 287 279 275 285 296 302 298 291 284 275 272 270 264 258 245 236 227 216 210 202 199 200 195 192 194 197 199 194
226 221 229 237 245 258 252 238 235 246 254 258 269 280 293 295 279 265 282 296 298 300 297 289 282 275 271 266 258 252 244 237 226 215 208 202 198 195 194 197 200 199 199 194
199 216 226 231 241 249 250 186 273 260 247 252 293 300 306 289 271 284 314 307 303 302 300 294 282 273 268 264 254 247 241 237 230 218 210 202 200 197 197 200 200 197 197 194
189 204 222 234 242 251 300 303 220 237 282 352 303 300 294 282 289 299 302 302 303 302 302 298 284 273 268 261 249 247 244 239 234 221 210 201 198 199 199 197 196 195 195 190
214 214 218 224 234 241 108 174 234 294 331 310 301 294 288 293 301 303 303 304 304 305 305 301 290 283 275 263 248 247 247 247 235 215 206 201 199 196 194 190 190 192 190 187
226 229 238 232 247 319 243 268 296 307 302 302 300 298 296 295 299 303 304 305 304 303 305 301 296 291 280 268 258 252 249 241 232 216 204 199 199 196 192 191 190 189 190 192
232 240 247 255 252 259 272 281 287 292 295 301 301 299 296 294 298 301 303 303 302 301 302 302 298 293 287 279 269 260 253 240 227 215 207 200 199 194 192 196 196 196 196 199
249 232 243 254 264 268 262 269 283 293 295 295 296 296 294 294 294 296 299 302 302 302 299 296 292 290 288 288 280 264 249 234 224 211 206 205 204 199 196 198 203 205 205 209
238 235 242 256 265 268 273 279 286 288 289 290 291 293 290 289 291 295 296 298 299 298 296 292 291 289 288 286 284 274 248 227 220 210 206 205 204 201 201 201 204 207 218 202
Height
1524 1523 1523 1522 1523 1523 1524 1525 1527 1527 1528 1530 1530 1530 1530 1533 1533 1534 1534 1535 1536 1537 1538 1538 1538 1539 1540 1540 1541 1542 1543 1544 1544 1545 1546 1547 1547 1548 1549 1550 1550 1550 1551 1551
1523 1523 1523 1524 1525 1525 1525 1526 1526 1527 1528 1529 1529 1529 1528 1531 1532 1533 1533 1534 1534 1535 1536 1537 1537 1538 1538 1539 1540 1541 1542 1542 1543 1544 1545 1546 1547 1548 1549 1549 1550 1550 1551 1552
1520 1523 1525 1525 1525 1526 1525 1525 1525 1528 1528 1527 1529 1528 1527 1528 1530 1532 1532 1533 1533 1534 1535 1536 1536 1537 1537 1538 1538 1539 1540 1541 1542 1543 1544 1545 1546 1547 1548 1549 1549 1550 1550 1551
1521 1523 1524 1524 1525 1524 1526 1524 1526 1528 1529 1527 1529 1530 1524 1524 1527 1529 1530 1531 1532 1533 1534 1534 1535 1536 1536 1537 1537 1538 1539 1540 1541 1541 1542 1543 1544 1545 1547 1548 1549 1549 1550 1551
1522 1524 1524 1524 1525 1525 1524 1525 1525 1526 1526 1527 1527 1529 1523 1523 1525 1525 1527 1529 1531 1532 1533 1533 1534 1534 1535 1535 1536 1537 1538 1538 1539 1539 1540 1542 1543 1544 1546 1546 1548 1549 1550 1550
1522 1525 1525 1524 1525 1526 1526 1526 1526 1525 1525 1532 1526 1528 1526 1520 1523 1523 1525 1528 1529 1531 1532 1532 1533 1533 1534 1534 1535 1535 1536 1537 1537 1538 1539 1540 1542 1543 1544 1545 1546 1547 1549 1550
1523 1524 1525 1526 1525 1526 1525 1526 1530 1530 1531 1528 1525 1528 1525 1520 1522 1524 1525 1526 1528 1530 1530 1531 1532 1532 1533 1533 1533 1534 1535 1535 1536 1537 1538 1539 1540 1542 1543 1544 1545 1546 1547 1548
1523 1525 1524 1525 1524 1524 1524 1523 1530 1534 1530 1526 1525 1526 1520 1521 1523 1524 1525 1526 1528 1529 1530 1530 1531 1531 1532 1532 1532 1533 1533 1534 1534 1535 1536 1537 1539 1540 1541 1542 1543 1544 1546 1547
1520 1523 1525 1526 1526 1524 1524 1524 1522 1525 1526 1530 1523 1520 1519 1521 1522 1524 1525 1526 1527 1528 1529 1529 1530 1530 1530 1530 1530 1531 1531 1532 1533 1533 1535 1536 1537 1538 1539 1540 1541 1543 1544 1545
1521 1523 1524 1526 1526 1527 1524 1523 1525 1527 1533 1532 1526 1522 1520 1520 1522 1523 1524 1525 1526 1527 1528 1528 1528 1528 1528 1529 1529 1529 1530 1530 1531 1532 1533 1534 1535 1536 1537 1538 1539 1541 1542 1543
1523 1523 1525 1525 1525 1525 1527 1527 1525 1524 1525 1529 1528 1523 1516 1519 1521 1522 1523 1524 1525 1526 1526 1526 1526 1527 1527 1527 1527 1527 1527 1528 1529 1529 1530 1532 1533 1534 1535 1536 1537 1538 1540 1541
1525 1522 1522 1523 1525 1526 1525 1524 1525 1528 1527 1526 1526 1524 1517 1519 1521 1522 1523 1524 1524 1525 1525 1525 1525 1525 1525 1525 1525 1525 1525 1526 1526 1527 1528 1529 1530 1532 1533 1534 1535 1537 1538 1540
1525 1524 1525 1525 1528 1527 1525 1526 1526 1525 1525 1525 1527 1523 1517 1519 1521 1522 1523 1523 1523 1523 1523 1523 1523 1523 1523 1523 1523 1523 1523 1523 1524 1524 1526 1527 1528 1530 1531 1532 1533 1534 1536 1538
1527 1523 1524 1525 1521 1523 1525 1527 1527 1525 1524 1522 1521 1518 1516 1517 1519 1521 1521 1522 1522 1522 1521 1521 1521 1521 1520 1520 1520 1520 1520 1520 1521 1522 1523 1524 1525 1527 1528 1530 1531 1532 1534 1535
1525 1522 1521 1522 1523 1524 1524 1525 1525 1524 1520 1520 1516 1516 1515 1515 1518 1519 1519 1520 1520 1520 1520 1519 1518 1518 1518 1518 1517 1517 1517 1517 1518 1519 1520 1521 1523 1524 1525 1527 1528 1529 1531 1533
1524 1523 1522 1523 1523 1523 1523 1520 1520 1520 1518 1517 1516 1515 1514 1516 1517 1517 1517 1518 1518 1518 1518 1517 1516 1516 1515 1514 1514 1514 1514 1514 1515 1515 1516 1518 1520 1521 1522 1524 1525 1527 1528 1530
1523 1522 1523 1520 1521 1522 1519 1512 1513 1514 1513 1513 1513 1512 1513 1514 1515 1515 1516 1516 1516 1516 1515 1514 1514 1513 1512 1512 1511 1511 1511 1511 1511 1512 1513 1514 1516 1518 1519 1521 1522 1523 1525 1527
1522 1522 1522 1520 1522 1523 1509 1508 1510 1511 1512 1512 1511 1511 1512 1513 1513 1513 1514 1513 1513 1513 1512 1511 1510 1509 1509 1508 1507 1507 1507 1507 1508 1509 1510 1511 1512 1514 1516 1517 1519 1520 1522 1524
1521 1522 1522 1521 1519 1512 1508 1508 1509 1510 1508 1510 1510 1510 1511 1511 1511 1510 1510 1511 1511 1510 1508 1507 1506 1506 1505 1504 1503 1503 1503 1503 1503 1504 1506 1507 1509 1511 1512 1514 1516 1517 1519 1521
1521 1520 1520 1519 1520 1514 1506 1507 1509 1510 1507 1509 1509 1509 1510 1509 1507 1505 1507 1508 1507 1506 1505 1503 1502 1501 1500 1500 1499 1499 1499 1499 1499 1501 1502 1504 1506 1507 1509 1511 1513 1514 1516 1517
1517 1519 1519 1516 1515 1505 1506 1508 1510 1511 1506 1508 1508 1508 1508 1507 1506 1506 1505 1505 1504 1503 1501 1500 1499 1497 1496 1495 1495 1495 1495 1495 1496 1497 1499 1500 1502 1504 1506 1508 1509 1511 1512 1514
1511 1512 1512 1512 1513 1509 1507 1508 1508 1506 1507 1507 1507 1507 1506 1505 1504 1503 1502 1501 1500 1499 1498 1496 1495 1493 1492 1491 1491 1490 1490 1491 1492 1493 1495 1497 1498 1500 1502 1504 1506 1508 1509 1511
1510 1509 1507 1507 1506 1505 1506 1507 1507 1507 1506 1505 1505 1505 1504 1503 1502 1500 1499 1498 1497 1496 1495 1493 1491 1489 1488 1487 1487 1487 1486 1487 1488 1490 1491 1493 1495 1497 1499 1500 1502 1504 1506 1507
1508 1510 1509 1506 1503 1505 1505 1505 1505 1505 1504 1503 1503 1502 1501 1500 1498 1497 1496 1494 1494 1492 1491 1489 1488 1486 1484 1484 1483 1483 1483 1483 1484 1486 1488 1489 1491 1493 1495 1497 1499 1500 1502 1503
1506 1507 1506 1503 1503 1503 1503 1503 1503 1502 1501 1500 1499 1498 1497 1496 1494 1493 1491 1490 1489 1488 1487 1485 1484 1482 1481 1479 1479 1479 1479 1480 1481 1482 1484 1486 1487 1489 1491 1493 1494 1496 1498 1500
1504 1504 1503 1500 1500 1500 1499 1499 1499 1498 1497 1496 1495 1494 1493 1492 1490 1489 1487 1486 1485 1484 1483 1481 1480 1478 1477 1476 1475 1474 1475 1476 1477 1478 1480 1482 1483 1485 1487 1489 1490 1492 1494 1496